Location: Banff
(51.1667°N, 115.5667°W)
Time: 02:23:57
(UTC+00:00)

Tiangong - Pass Details

Date: 03 December 2022
Orbit: 382 x 386 km, 41.5° (Epoch: 05 February)

Event Time Altitude Azimuth Distance (km) Brightness Sun altitude
Rises 02:01:50 0° 230° (SW) 2,248 2.7 -21.6°
Reaches altitude 10° 02:04:40 10° 202° (SSW) 1,398 1.0 -22.1°
Enters shadow 02:05:33 13° 186° (S) 1,259 0.6 -22.2°
